This is the latest recevied weather packets stored in our database for station/object YM2KV-13. If no packets are shown the sender has not sent any weather packets the latest 10 day(s).
| Time | Temp. | Humidity | Pressure | Rain* | Wind** | Luminosity | Snow |
|---|---|---|---|---|---|---|---|
| 1777902586 | 8.89° C | 86% | 1020.8 hPa | - | - | - | - |
| 1777901986 | 8.89° C | 86% | 1020.7 hPa | - | - | - | - |
| 1777901386 | 8.89° C | 87% | 1020.7 hPa | - | - | - | - |
| 1777900786 | 8.89° C | 87% | 1020.6 hPa | - | - | - | - |
| 1777900186 | 8.89° C | 87% | 1020.6 hPa | - | - | - | - |
| 1777899586 | 8.89° C | 87% | 1020.7 hPa | - | - | - | - |
| 1777898986 | 8.89° C | 88% | 1020.8 hPa | - | - | - | - |
| 1777898386 | 8.89° C | 86% | 1020.9 hPa | - | - | - | - |
| 1777897786 | 9.44° C | 86% | 1020.8 hPa | - | - | - | - |
| 1777897186 | 9.44° C | 84% | 1020.7 hPa | - | - | - | - |
| 1777896586 | 9.44° C | 82% | 1020.7 hPa | - | - | - | - |
| 1777895986 | 9.44° C | 82% | 1020.7 hPa | - | - | - | - |
| 1777895386 | 10° C | 83% | 1020.5 hPa | - | - | - | - |
| 1777894786 | 10° C | 81% | 1020.6 hPa | - | - | - | - |
| 1777894185 | 9.44° C | 82% | 1020.7 hPa | - | - | - | - |
| 1777893586 | 9.44° C | 84% | 1020.8 hPa | - | - | - | - |
| 1777892986 | 8.89° C | 85% | 1020.9 hPa | - | - | - | - |
| 1777892385 | 8.89° C | 87% | 1020.9 hPa | - | - | - | - |
| 1777891785 | 8.89° C | 87% | 1020.8 hPa | - | - | - | - |
| 1777891185 | 9.44° C | 87% | 1020.7 hPa | - | - | - | - |
| 1777890586 | 8.33° C | 86% | 1020.5 hPa | - | - | - | - |
| 1777889985 | 8.89° C | 87% | 1020.6 hPa | - | - | - | - |
| 1777889385 | 8.33° C | 84% | 1020.5 hPa | - | - | - | - |
| 1777888785 | 8.33° C | 82% | 1020.5 hPa | - | - | - | - |
| 1777888185 | 8.33° C | 82% | 1020.5 hPa | - | - | - | - |
* Rain since midnight (hover to see other rain measurements)
** Current wind speed in m/s (hover to see current wind gust speed)